This demonstration page uses our WeatherBlox Daily Observations layout. Learn more.

41.86663, -103.66717

Hourly Observations for October 20, 2020

Temp ( °F °C ) Dew Point ( °F °C ) Humidity (%) Winds ( mph kmh ) Pressure ( in mb ) Visibility ( mi km ) Precip ( " mm )
12:53 am 00:53 Clear 39 3.9 33 0.6 79 79 ESE 13 20 29.88 1012 10 16.0934 0 0
1:53 am 01:53 Clear 36 2.2 31 -0.6 82 82 E 12 19 29.85 1011 10 16.0934 0 0
2:53 am 02:53 Clear 36 2.2 31 -0.6 82 82 E 12 19 29.81 1009 10 16.0934 0 0
3:53 am 03:53 Clear 34 1.1 31 -0.6 89 89 E 7 11 29.8 1009 10 16.0934 0 0
4:53 am 04:53 Clear 35 1.7 32 0 89 89 E 6 9 29.79 1009 10 16.0934 0 0
5:53 am 05:53 Clear 34 1.1 31 -0.6 89 89 ENE 6 9 29.8 1009 10 16.0934 0 0
6:53 am 06:53 Clear 33 0.6 30 -1.1 89 89 N 7 11 29.84 1011 10 16.0934 0 0
7:53 am 07:53 Sunny 35 1.7 31 -0.6 85 85 Calm 29.9 1013 10 16.0934 0 0
8:33 am 08:33 Mostly Cloudy 41 5 36 2.2 82 82 NW 12 19 29.97 1015 10 16.0934 0 0
8:53 am 08:53 Mostly Cloudy 43 6.1 36 2.2 76 76 NW 14 22 29.94 1014 10 16.0934 0 0
9:08 am 09:08 Partly Cloudy 45 7 37 3 76 76 NW 6 9 29.96 1015 10 16.0934 0 0
9:53 am 09:53 Mostly Sunny 48 8.9 37 2.8 66 66 W 7 11 29.96 1015 10 16.0934 0 0
10:53 am 10:53 Sunny 54 12.2 39 3.9 57 57 WNW 7 11 29.95 1014 10 16.0934 0 0
11:53 am 11:53 Sunny 59 15 38 3.3 46 46 NW 14 22 29.93 1014 10 16.0934 0 0
12:53 pm 12:53 Sunny 63 17.2 33 0.6 33 33 NNW 18 30 29.93 1013 10 16.0934 0 0
1:53 pm 13:53 Sunny 61 16.1 34 1.1 36 36 N 17 28 29.94 1014 10 16.0934 0 0
2:53 pm 14:53 Sunny 60 15.6 33 0.6 36 36 NNW 17 28 29.95 1014 10 16.0934 0 0
3:53 pm 15:53 Sunny 59 15 34 1.1 39 39 N 14 22 29.97 1015 10 16.0934 0 0
4:53 pm 16:53 Sunny 55 12.8 34 1.1 45 45 N 17 28 30 1016 10 16.0934 0 0
5:53 pm 17:53 Sunny 51 10.6 34 1.1 52 52 NNW 5 7 30.05 1018 10 16.0934 0 0
6:53 pm 18:53 Mostly Cloudy 47 8.3 33 0.6 59 59 NW 3 6 30.09 1019 10 16.0934 0 0
7:53 pm 19:53 Mostly Clear 46 7.8 33 0.6 61 61 N 8 13 30.1 1019 10 16.0934 0 0
8:53 pm 20:53 Clear 43 6.1 33 0.6 68 68 NNE 7 11 30.1 1019 10 16.0934 0 0
9:53 pm 21:53 Mostly Cloudy 46 7.8 33 0.6 61 61 NE 6 9 30.06 1018 10 16.0934 0 0
10:53 pm 22:53 Cloudy 45 7.2 34 1.1 66 66 SE 3 6 30.05 1018 10 16.0934 0 0
11:53 pm 23:53 Cloudy 45 7.2 32 0 61 61 ESE 9 15 30.02 1017 10 16.0934 0 0

Powered by AerisWeather